WetterOnline ( https://www.wetteronline.ch )

Wetter aktuell Regensburg

Aktuelles Wetter: Regensburg/Oberhub (371m)

6-stündlich | Neueste Meldungen
Ortszeit Temperatur Wetter
Mo, 13.07. 2:00 10.5° C wolkig
So, 12.07. 20:00 20.5° C wolkenlos
So, 12.07. 14:00 21.7° C leicht bewölkt
So, 12.07. 8:00 14.3° C bewölkt
So, 12.07. 2:00 10.6° C leicht bewölkt
Sa, 11.07. 20:00 19.4° C wolkenlos
Sa, 11.07. 14:00 21.1° C wolkig
Sa, 11.07. 8:00 13.8° C leichter Regen
Ortszeit Temperatur Wetter
Mo, 13.07. 3:00 10.2° C wolkig
Mo, 13.07. 2:30 10.4° C wolkig
Mo, 13.07. 2:20 10.4° C wolkig
Mo, 13.07. 2:10 10.2° C wolkig
Mo, 13.07. 2:00 10.5° C wolkig
Mo, 13.07. 1:50 10.5° C wolkig
Mo, 13.07. 1:30 12.3° C leicht bewölkt
Mo, 13.07. 1:00 12.3° C wolkenlos
Mo, 13.07. 0:30 12.8° C fast wolkenlos
Mo, 13.07. 0:00 12.8° C wolkenlos
So, 12.07. 23:30 13.9° C wolkenlos
Ortszeit Relative Feuchte Sichtweite
Mo, 13.07. 2:00 82% 60 km
So, 12.07. 20:00 36% 55 km
So, 12.07. 14:00 36% 50 km
So, 12.07. 8:00 84% 28 km
So, 12.07. 2:00 92% 35 km
Sa, 11.07. 20:00 48% >70 km
Sa, 11.07. 14:00 54% >70 km
Sa, 11.07. 8:00 94% 16 km
Ortszeit Relative Feuchte Sichtweite
Mo, 13.07. 3:00 81% >70 km
Mo, 13.07. 2:30 84% >70 km
Mo, 13.07. 2:20 84% -
Mo, 13.07. 2:10 83% -
Mo, 13.07. 2:00 82% 60 km
Mo, 13.07. 1:50 82% -
Mo, 13.07. 1:30 71% >70 km
Mo, 13.07. 1:00 72% 60 km
Mo, 13.07. 0:30 68% 60 km
Mo, 13.07. 0:00 71% 60 km
So, 12.07. 23:30 68% 60 km
Ortszeit Niederschlagsmenge Niederschlagsart
Mo, 13.07. 2:00 0.0 l/m2 in 6 Std. -
So, 12.07. 20:00 0.0 l/m2 in 12 Std. -
So, 12.07. 14:00 0.0 l/m2 in 6 Std. -
So, 12.07. 8:00 0.0 l/m2 in 12 Std. -
So, 12.07. 2:00 0.0 l/m2 in 6 Std. -
Sa, 11.07. 20:00 0.4 l/m2 in 12 Std. -
Sa, 11.07. 14:00 0.4 l/m2 in 6 Std. Regen
Sa, 11.07. 8:00 3 l/m2 in 12 Std. Regen
Ortszeit Niederschlagsmenge Niederschlagsart
Mo, 13.07. 3:00 0.0 l/m2 in 1 Std. -
Mo, 13.07. 2:30 0.0 l/m2 in 1 Std. -
Mo, 13.07. 2:20 keine Meldung -
Mo, 13.07. 2:10 keine Meldung -
Mo, 13.07. 2:00 0.0 l/m2 in 1 Std. -
Mo, 13.07. 1:50 keine Meldung -
Mo, 13.07. 1:30 0.0 l/m2 in 1 Std. -
Mo, 13.07. 1:00 0.0 l/m2 in 1 Std. -
Mo, 13.07. 0:30 0.0 l/m2 in 1 Std. -
Mo, 13.07. 0:00 0.0 l/m2 in 1 Std. -
So, 12.07. 23:30 0.0 l/m2 in 1 Std. -
Ortszeit Stärke Spitze Richtung
km/h Bft. km/h Grad Sektor
Mo, 13.07. 2:00 7 2 11 20° N
So, 12.07. 20:00 4 1 22 20° N
So, 12.07. 14:00 7 2 22 160° S
So, 12.07. 8:00 4 1 14 30° NO
So, 12.07. 2:00 6 1 17 10° N
Sa, 11.07. 20:00 9 2 28 340° N
Sa, 11.07. 14:00 11 2 25 20° N
Sa, 11.07. 8:00 7 2 18 350° N
Ortszeit Stärke Spitze Richtung
km/h Bft. km/h Grad Sektor
Mo, 13.07. 3:00 7 2 11 10° N
Mo, 13.07. 2:30 7 2 11 20° N
Mo, 13.07. 2:20 7 2 - 20° N
Mo, 13.07. 2:10 7 2 - 10° N
Mo, 13.07. 2:00 7 2 11 20° N
Mo, 13.07. 1:50 7 2 - 20° N
Mo, 13.07. 1:30 7 2 11 30° NO
Mo, 13.07. 1:00 7 2 11 30° NO
Mo, 13.07. 0:30 9 2 11 20° N
Mo, 13.07. 0:00 7 2 11 10° N
So, 12.07. 23:30 6 1 9 20° N
Ortszeit Untergrenze Bedeckung Gattung
total tief tief mittel hoch
Mo, 13.07. 2:00 9000 m 8/8 0/8 - - -
So, 12.07. 20:00 - 0/8 0/8 - - -
So, 12.07. 14:00 1500 m 2/8 2/8 - - -
So, 12.07. 8:00 180 m 7/8 7/8 - - -
So, 12.07. 2:00 2400 m 4/8 4/8 - - -
Sa, 11.07. 20:00 - 0/8 0/8 - - -
Sa, 11.07. 14:00 870 m 6/8 6/8 - - -
Sa, 11.07. 8:00 990 m 8/8 8/8 - - -
Ortszeit Bedeckungsgrad in Achtel und Wolkenuntergrenze
Mo, 13.07. 3:00 6(8400m) 7(9000m) 7(9000m)
Mo, 13.07. 2:30 6(9000m) 7(10500m)
Mo, 13.07. 2:20 6(9000m) 7(10500m)
Mo, 13.07. 2:10 7(9000m)
Mo, 13.07. 2:00 7(9000m) 8(9000m)
Mo, 13.07. 1:50 7(9000m) 8(9000m)
Mo, 13.07. 1:30 3(9000m) 5(9000m)
Mo, 13.07. 1:00 keine Wolken
Mo, 13.07. 0:30 1(10500m)
Mo, 13.07. 0:00 keine Wolken
So, 12.07. 23:30 keine Wolken
Ortszeit Luftdruck NN (hPa) Tendenz (hPa in 3 Std.)
Mo, 13.07. 2:00 1026 - 0,4
So, 12.07. 20:00 1024 - 0,4
So, 12.07. 14:00 1025 - 0,3
So, 12.07. 8:00 1026 + 1,3
So, 12.07. 2:00 1026 + 0,5
Sa, 11.07. 20:00 1022 + 0,4
Sa, 11.07. 14:00 1021 + 0,8
Sa, 11.07. 8:00 1020 + 1,5
Ortszeit Luftdruck NN (hPa) Tendenz (hPa in 3 Std.)
Mo, 13.07. 3:00 1026 - 0,2
Mo, 13.07. 2:30 1026 - 0,4
Mo, 13.07. 2:20 1026 keine Meldung
Mo, 13.07. 2:10 1026 keine Meldung
Mo, 13.07. 2:00 1026 - 0,4
Mo, 13.07. 1:50 1026 keine Meldung
Mo, 13.07. 1:30 1026 - 0,4
Mo, 13.07. 1:00 1026 - 0,2
Mo, 13.07. 0:30 1026 + 0,1
Mo, 13.07. 0:00 1026 + 0,3
So, 12.07. 23:30 1026 + 0,2
Ortszeit Schneehöhe (cm)
Mo, 13.07. 2:00 -
So, 12.07. 20:00 -
So, 12.07. 14:00 -
So, 12.07. 8:00 -
So, 12.07. 2:00 -
Sa, 11.07. 20:00 -
Sa, 11.07. 14:00 -
Sa, 11.07. 8:00 -
Ortszeit Schneehöhe (cm)
Mo, 13.07. 3:00 -
Mo, 13.07. 2:30 -
Mo, 13.07. 2:20 -
Mo, 13.07. 2:10 -
Mo, 13.07. 2:00 -
Mo, 13.07. 1:50 -
Mo, 13.07. 1:30 -
Mo, 13.07. 1:00 -
Mo, 13.07. 0:30 -
Mo, 13.07. 0:00 -
So, 12.07. 23:30 -
Link zu dieser Seite / Seite empfehlen

Das Wetter in ...